Location: Wiler
(46.4041°N, 7.7840°E)
Time: 08:49:05
(UTC+00:00)

Cosmos 2369 Rocket - Pass Details

Date: 09 April 2020
Orbit: 829 x 852 km, 71.0° (Epoch: 24 May)

Event Time Altitude Azimuth Distance (km) Brightness Sun altitude
Rises 18:43:12 0° 327° (NNW) 3,421 6.3 -6.5°
Reaches altitude 10° 18:45:49 10° 320° (NW) 2,478 5.7 -6.9°
Maximum altitude 18:51:00 38° 254° (WSW) 1,269 3.7 -7.8°
Drops below altitude 10° 18:56:08 10° 188° (S) 2,448 4.5 -8.6°
Sets 18:58:42 0° 180° (S) 3,374 5.1 -9.0°
